Вернуться в каталог

STARLINK-35931

АктивенСвязьVLEO
NORAD 66519·PAYLOAD·🇺🇸 United States

Запущен Nov 19, 2025 с Cape Canaveral Space Force Station

Loading…

Ближайшие Пролёты (ближайшие 24 часа)

TLE

СвежийSource: CelesTrak SupGP

Эпоха: Sep 15, 2026, 03:09 UTC

1 66519C 25265D   26258.13173611  .00005079  00000+0  18382-3 0  2586
2 66519  43.0001 288.1442 0001166 265.8145 151.9275 15.27601702    13

Отслеживайте STARLINK-35931 в реальном времени с AllMySat

Download on the App Store